Wind_Speed
16 17 12 5 16 10 20 6 8 16 15 7 5 12 7 14 10 10 6 6 6 4 2 2 2 4 4 4 5 6 7 6 5 6 8 9 10 9 10 11 11 11 11 12 12 13 13 14 13
16 18 12 16 7 14 7 9 3 14 5 4 9 11 8 10 8 8 8 5 5 4 4 4 4 5 5 5 5 7 8 8 4 4 7 8 8 8 9 10 10 10 11 11 12 13 12 12 12
17 15 5 16 11 9 9 3 3 8 7 12 18 12 7 7 7 9 7 6 5 5 6 7 8 7 7 6 6 7 8 8 5 3 6 6 6 6 7 9 10 9 10 10 10 10 10 10 8
20 24 21 15 5 10 8 11 13 7 16 21 15 7 9 7 5 7 6 4 4 6 7 9 10 10 10 7 7 8 9 8 4 3 3 4 5 5 6 9 9 9 8 8 8 7 7 6 6
20 19 22 2 11 12 12 13 12 13 18 15 13 11 14 8 7 7 7 8 9 12 12 12 12 13 12 10 8 9 9 9 6 4 2 2 3 3 4 6 7 7 7 7 6 6 5 5 4
20 23 13 6 3 3 12 15 15 26 26 22 20 17 9 9 8 11 11 13 13 15 15 14 15 16 15 13 11 10 10 8 6 5 3 1 1 2 3 4 5 5 4 4 4 3 2 3 2
23 21 7 8 3 11 16 14 16 23 24 25 20 8 16 12 11 10 12 13 14 17 19 18 17 17 16 15 13 11 11 10 7 7 5 2 1 1 1 3 3 3 3 3 3 3 2 1 2
25 20 15 4 18 28 21 23 18 30 31 30 20 4 7 9 10 10 13 14 14 16 18 19 18 18 18 17 16 15 13 11 10 9 6 4 3 2 2 2 3 2 3 2 2 1 1 2 3
18 17 21 6 26 28 27 32 23 26 22 24 14 8 7 6 9 14 16 16 15 13 12 15 17 18 18 18 19 19 16 13 11 10 7 5 5 5 4 4 5 4 4 5 4 4 4 3 4
16 14 21 19 32 33 36 37 14 21 21 20 12 8 6 12 17 19 17 15 17 17 15 13 13 16 16 16 17 19 17 14 12 10 8 6 6 6 7 6 7 6 7 7 7 7 6 5 6
16 27 16 27 30 40 38 33 35 14 12 13 13 13 12 14 19 20 18 17 16 15 14 14 12 13 14 14 15 15 14 13 11 11 11 9 8 8 8 8 9 9 9 10 10 10 10 8 9
18 29 16 30 38 44 36 25 29 20 16 15 15 14 14 17 19 19 16 15 14 14 14 12 12 12 12 11 12 12 11 10 10 12 12 12 11 11 11 11 11 11 11 12 13 14 14 13 12
20 31 25 36 42 40 30 32 33 30 28 23 19 18 17 19 18 17 13 13 13 14 14 12 13 14 13 10 9 10 10 10 11 13 14 14 13 14 15 15 14 14 14 14 15 16 18 17 16
19 29 29 37 40 34 24 31 35 31 27 26 25 23 20 19 19 13 11 13 12 11 12 14 15 12 11 7 7 7 8 9 10 12 14 14 14 15 15 16 16 17 17 16 17 19 20 21 22
23 27 35 37 35 20 15 30 36 34 31 28 28 25 22 22 22 13 11 16 16 13 15 17 13 12 11 10 9 9 9 10 11 12 14 15 16 16 17 17 18 18 18 19 19 21 22 23 24
24 26 33 37 36 24 21 34 33 34 32 31 29 27 26 25 24 19 14 17 18 19 20 22 22 18 17 16 16 14 16 16 17 17 15 14 12 11 12 12 14 15 14 16 19 21 22 25 27
25 29 30 30 39 30 25 41 34 34 33 32 32 31 30 28 25 24 16 16 17 19 21 23 25 25 26 26 26 21 24 23 23 23 22 20 20 21 20 20 20 19 20 22 24 24 23 25 27
21 25 22 23 29 35 34 37 37 35 36 37 36 34 33 31 30 26 25 21 21 21 21 24 27 28 29 31 32 31 34 32 32 30 27 28 26 29 26 27 26 25 27 29 28 29 31 31 31
14 12 15 27 39 42 40 36 29 36 41 40 39 37 35 32 31 28 25 25 25 27 28 28 29 33 34 33 35 38 41 41 36 35 34 32 28 24 31 32 33 33 36 36 37 37 36 35 39
26 21 26 40 40 45 48 38 39 36 40 47 45 43 41 38 36 35 33 32 30 31 33 30 33 33 37 41 39 43 46 44 43 44 40 42 37 32 35 35 34 32 36 38 40 41 41 43 44
24 28 27 36 39 41 46 45 34 33 37 37 44 47 47 45 44 43 42 38 36 37 37 35 35 37 39 41 43 46 48 48 49 47 47 47 46 46 41 40 38 37 37 41 44 43 43 42 43
28 30 31 26 43 42 40 39 40 35 37 38 38 39 43 46 47 47 44 42 43 42 41 42 42 44 43 44 45 47 48 49 49 48 47 47 48 50 48 46 46 47 48 47 48 50 51 53 49
26 23 20 25 39 45 38 37 34 40 37 36 33 31 32 37 43 47 46 45 46 47 46 41 38 39 43 44 45 46 47 48 48 48 49 51 53 53 54 53 53 55 56 57 57 57 58 60 58
17 23 24 27 29 40 30 35 31 42 34 32 32 30 30 29 28 32 35 37 37 37 38 40 41 40 41 43 46 49 50 51 52 53 54 55 56 58 59 60 61 62 63 64 64 63 59 58 57
31 29 22 27 29 36 26 24 32 40 42 39 34 30 30 30 27 28 31 35 38 41 43 43 44 45 47 48 48 50 52 54 56 57 59 60 61 63 65 64 63 62 61 60 60 58 57 56 52
27 22 27 27 29 28 18 26 45 50 49 41 35 27 30 32 34 36 38 40 42 44 45 43 43 44 45 46 47 48 49 50 51 52 52 53 54 55 56 57 57 56 57 58 59 59 58 57 58
28 26 23 30 32 34 32 36 39 47 47 47 40 36 33 30 34 35 38 42 43 44 44 44 47 48 48 49 50 52 52 51 51 52 53 54 55 56 57 57 58 60 60 61 62 63 62 62 61
34 30 27 26 34 37 37 40 41 35 43 47 44 42 33 33 36 37 37 40 42 45 47 48 50 51 52 52 52 52 54 55 55 54 54 54 54 56 57 58 60 61 64 65 66 67 67 67 67
21 27 30 38 33 39 46 42 35 45 40 41 44 37 38 39 41 42 43 41 43 45 49 53 57 54 54 54 54 53 52 52 53 54 56 57 59 60 61 62 63 64 65 66 67 68 68 69 69
32 28 27 29 34 41 38 44 41 43 48 47 43 44 43 37 40 42 45 47 50 53 57 56 55 55 54 54 53 53 54 53 54 56 58 60 62 63 63 62 63 63 64 65 65 66 68 69 69
Wind_Direction
120 109 113 91 60 38 58 2 159 208 230 205 196 247 222 199 224 243 221 163 174 204 226 278 313 328 332 0 4 0 354 355 10 66 69 76 74 80 86 90 89 90 90 92 91 82 72 64 60
132 120 93 49 22 68 80 268 120 291 269 189 197 216 210 216 213 200 205 162 197 229 261 279 282 299 316 350 354 359 350 346 358 47 63 68 80 77 86 92 96 95 90 86 84 82 78 72 71
136 135 106 49 4 16 334 279 314 299 290 243 243 209 239 216 213 225 228 225 234 262 271 272 270 287 304 332 344 349 337 341 345 21 60 67 75 76 83 86 87 86 85 80 78 76 73 73 65
140 123 90 56 9 294 264 261 246 258 238 249 266 202 215 242 239 239 247 256 282 290 291 288 285 286 293 305 325 337 338 334 333 327 44 74 73 87 91 84 77 76 75 80 76 67 57 53 46
146 136 96 339 253 285 268 243 220 282 282 292 265 248 235 233 249 266 283 297 300 291 283 280 285 290 299 305 311 315 319 327 302 287 338 65 84 99 100 85 79 76 70 73 67 56 45 31 46
146 144 91 2 60 271 250 236 215 208 198 238 246 249 234 256 282 282 293 295 292 287 287 286 287 288 290 292 291 298 310 302 273 264 278 260 87 82 85 80 81 85 78 72 36 26 17 14 1
150 132 129 279 292 255 261 235 219 224 221 233 241 229 255 273 299 313 310 301 305 297 291 289 286 282 281 283 290 295 298 296 266 259 276 287 324 350 72 64 53 59 57 32 9 28 88 1 316
169 153 154 185 243 250 252 258 259 241 227 263 142 0 295 299 324 334 327 325 313 307 301 299 292 289 287 288 291 289 290 287 264 260 285 289 296 323 339 24 4 11 338 341 1 57 55 7 347
197 168 119 124 254 258 257 263 255 272 259 258 301 317 307 331 331 328 317 315 320 309 312 309 304 297 296 295 298 298 295 288 270 266 278 288 311 323 314 338 334 324 316 317 314 306 322 353 0
203 159 109 252 233 240 248 254 222 262 246 271 298 296 308 319 328 326 315 313 309 308 302 309 313 306 304 306 305 303 302 296 279 269 279 274 281 301 302 318 318 318 306 306 301 292 305 325 334
192 150 97 265 253 245 243 242 250 159 278 264 272 293 298 303 317 314 324 321 316 308 307 299 301 311 316 313 306 303 302 298 279 266 265 267 263 275 289 296 311 319 307 297 291 295 292 293 308
193 166 194 233 245 244 246 244 246 236 270 260 267 281 281 295 314 318 332 330 327 311 306 305 313 313 308 307 305 304 306 301 275 268 270 278 277 279 289 298 302 310 313 304 301 295 297 297 291
202 178 228 220 235 243 254 251 245 241 252 257 260 266 273 290 305 308 326 342 335 316 310 315 311 305 303 301 303 307 309 308 296 287 285 290 299 302 302 302 306 306 307 307 304 298 297 299 299
212 197 241 241 244 257 271 238 241 250 251 257 261 258 270 286 299 299 315 338 354 351 317 313 315 322 306 294 303 305 300 296 295 293 291 290 292 296 299 300 302 304 302 302 300 302 302 302 300
213 211 224 248 265 268 296 251 240 247 254 253 256 256 269 276 291 289 305 318 332 345 350 347 324 311 323 318 308 296 296 302 300 301 293 294 300 299 300 298 296 294 292 294 294 295 297 299 301
227 223 222 253 267 268 258 255 247 245 249 253 252 256 270 269 281 286 287 298 313 320 320 324 328 319 310 308 305 307 309 304 300 293 295 286 277 276 284 283 286 290 290 295 302 301 300 297 295
237 238 239 243 262 268 260 259 251 253 254 250 250 256 264 271 274 285 277 279 290 301 299 299 302 304 306 303 296 299 295 293 290 291 289 279 277 277 275 275 276 276 278 293 299 297 298 301 300
253 245 248 259 282 271 274 261 265 259 255 253 254 256 257 260 263 274 279 278 277 289 294 293 291 290 293 292 297 292 287 283 284 283 277 282 284 283 286 291 288 286 290 291 292 296 300 300 297
215 260 275 245 252 269 266 277 285 266 257 255 256 258 261 257 255 263 260 268 270 279 279 285 286 287 286 290 286 285 279 279 282 276 300 291 289 303 292 288 288 290 286 291 297 298 296 294 296
193 211 237 240 244 253 265 280 275 270 265 259 257 255 256 259 258 259 263 267 261 272 274 273 278 281 281 279 281 282 290 297 300 298 298 292 292 294 290 289 288 298 287 289 292 293 296 294 300
237 219 230 252 249 252 264 271 273 266 265 265 259 257 256 259 259 260 264 263 258 265 265 268 269 269 272 271 275 278 283 286 289 292 291 290 293 293 288 286 288 287 287 286 289 289 292 292 297
237 237 234 237 258 257 261 268 266 264 265 266 265 261 262 264 263 263 264 267 268 271 268 267 278 270 269 267 270 273 275 278 280 284 285 286 287 289 293 290 290 289 286 287 286 289 290 290 289
248 250 239 244 262 263 265 261 273 266 264 267 271 272 269 267 264 264 265 264 267 271 273 276 275 272 271 272 269 270 275 275 278 280 280 283 284 286 288 288 287 287 287 287 287 286 285 286 287
239 253 226 241 247 263 261 261 269 276 280 273 270 274 272 270 267 265 263 264 266 270 266 269 273 274 275 276 275 274 274 274 275 275 275 276 277 279 280 280 280 281 281 282 282 283 282 280 279
236 233 237 239 245 257 271 254 277 273 275 275 282 283 282 275 272 268 265 263 265 267 269 272 275 277 277 276 276 275 273 273 273 275 276 277 278 279 280 281 281 281 281 280 280 278 277 278 277
244 264 240 241 247 269 285 253 242 250 259 276 274 275 281 281 276 270 269 272 274 276 279 281 281 281 281 281 280 279 278 278 277 277 278 278 278 279 278 279 278 278 279 280 280 280 279 277 274
227 225 257 243 235 247 261 263 250 261 255 264 271 277 275 277 281 277 274 275 277 280 281 282 284 285 284 284 283 283 282 283 284 284 283 284 284 283 281 281 281 280 279 279 279 279 280 279 277
255 256 232 244 245 249 249 274 273 265 256 262 261 261 260 264 268 270 271 273 277 279 281 283 285 287 288 288 287 287 286 287 287 287 287 287 286 285 284 283 283 283 282 282 282 282 281 280 279
260 266 249 236 241 248 236 241 251 257 258 262 266 264 269 265 269 271 264 269 276 281 285 289 290 289 289 289 289 289 288 288 289 289 289 288 288 287 286 285 284 283 283 282 281 280 279 277 275
252 236 234 236 249 246 263 272 270 267 264 269 271 271 269 267 276 280 281 282 283 286 288 288 288 289 289 289 289 289 289 290 289 289 289 289 289 288 287 287 285 284 283 281 280 279 279 278 276
Height
5910 5911 5912 5912 5907 5908 5901 5907 5905 5907 5910 5910 5911 5908 5908 5908 5907 5909 5906 5906 5907 5907 5907 5907 5907 5907 5905 5904 5903 5901 5900 5899 5897 5897 5895 5894 5894 5893 5893 5892 5891 5890 5889 5888 5887 5887 5886 5886 5885
5910 5911 5914 5909 5908 5908 5914 5914 5911 5907 5912 5909 5907 5904 5904 5906 5905 5906 5905 5905 5906 5908 5908 5907 5907 5907 5905 5904 5903 5902 5901 5900 5899 5898 5897 5896 5895 5895 5894 5893 5892 5891 5890 5890 5889 5888 5888 5888 5888
5909 5912 5914 5910 5914 5913 5915 5913 5916 5912 5911 5904 5902 5903 5904 5904 5905 5905 5904 5907 5908 5909 5908 5908 5907 5907 5906 5905 5904 5903 5902 5901 5900 5899 5898 5897 5896 5896 5895 5894 5893 5893 5892 5891 5892 5891 5891 5890 5890
5909 5913 5913 5917 5921 5919 5918 5914 5915 5915 5901 5901 5902 5905 5905 5905 5904 5905 5906 5908 5908 5907 5908 5908 5908 5907 5906 5905 5905 5904 5903 5902 5901 5900 5899 5898 5897 5896 5896 5896 5896 5894 5894 5893 5893 5893 5893 5893 5893
5908 5912 5909 5916 5922 5918 5916 5914 5915 5911 5901 5886 5900 5906 5906 5904 5905 5906 5907 5908 5909 5908 5908 5907 5907 5907 5906 5906 5904 5903 5902 5902 5901 5900 5899 5898 5898 5897 5896 5896 5896 5896 5896 5895 5895 5894 5894 5894 5894
5908 5909 5908 5915 5918 5918 5913 5907 5906 5904 5900 5891 5899 5902 5904 5905 5906 5906 5907 5907 5909 5909 5908 5908 5907 5907 5906 5905 5903 5902 5901 5900 5900 5899 5899 5898 5898 5898 5897 5897 5897 5897 5897 5897 5897 5897 5895 5895 5894
5905 5903 5910 5918 5917 5915 5910 5903 5902 5901 5899 5893 5892 5899 5903 5905 5906 5905 5906 5907 5908 5907 5906 5906 5906 5905 5904 5903 5902 5902 5901 5900 5900 5899 5899 5899 5899 5899 5898 5898 5898 5898 5897 5897 5896 5896 5896 5896 5895
5901 5901 5906 5915 5915 5913 5905 5901 5901 5898 5899 5879 5855 5901 5906 5907 5905 5904 5904 5906 5905 5905 5906 5906 5904 5904 5903 5903 5902 5901 5900 5900 5900 5899 5900 5900 5899 5899 5900 5898 5898 5898 5898 5897 5897 5896 5896 5895 5896
5898 5902 5906 5915 5910 5907 5906 5894 5898 5895 5899 5896 5897 5902 5906 5906 5903 5903 5903 5902 5903 5902 5903 5903 5903 5902 5902 5901 5901 5901 5900 5900 5899 5899 5900 5901 5901 5900 5900 5900 5899 5898 5898 5897 5897 5897 5896 5896 5896
5897 5903 5905 5906 5901 5901 5903 5893 5899 5886 5894 5892 5896 5900 5903 5902 5901 5900 5901 5902 5901 5900 5901 5901 5901 5900 5900 5900 5900 5900 5900 5899 5899 5899 5899 5900 5900 5900 5900 5900 5899 5898 5897 5898 5898 5897 5896 5897 5896
5896 5900 5907 5897 5896 5894 5897 5898 5896 5863 5895 5889 5894 5898 5900 5899 5900 5898 5900 5899 5899 5898 5898 5898 5898 5898 5898 5899 5898 5898 5898 5898 5897 5897 5897 5898 5898 5899 5899 5899 5898 5898 5897 5897 5897 5897 5896 5896 5896
5894 5897 5898 5895 5887 5885 5893 5898 5893 5892 5891 5893 5896 5898 5900 5900 5900 5899 5898 5897 5897 5897 5897 5897 5897 5896 5896 5896 5896 5897 5897 5896 5896 5896 5896 5897 5897 5897 5897 5898 5898 5897 5896 5896 5897 5895 5895 5895 5895
5890 5894 5890 5887 5882 5885 5889 5893 5894 5892 5892 5895 5897 5898 5899 5899 5900 5899 5899 5898 5896 5896 5896 5896 5895 5895 5894 5895 5895 5895 5894 5894 5894 5895 5895 5896 5896 5896 5896 5896 5895 5895 5895 5894 5894 5894 5892 5892 5892
5887 5891 5886 5882 5882 5884 5887 5889 5888 5889 5891 5893 5895 5896 5897 5898 5899 5899 5898 5898 5896 5895 5895 5895 5894 5894 5894 5893 5893 5893 5892 5892 5892 5892 5893 5893 5893 5893 5894 5893 5892 5891 5891 5890 5890 5889 5888 5888 5888
5882 5885 5879 5878 5875 5882 5886 5883 5883 5886 5888 5890 5892 5893 5895 5896 5896 5897 5896 5895 5894 5894 5894 5894 5893 5893 5893 5892 5892 5891 5891 5890 5891 5891 5890 5891 5891 5891 5891 5890 5888 5888 5887 5886 5885 5885 5884 5883 5881
5878 5880 5879 5871 5871 5878 5882 5873 5879 5882 5884 5887 5889 5891 5892 5893 5893 5894 5893 5893 5893 5892 5891 5891 5891 5891 5891 5890 5889 5889 5888 5888 5888 5887 5888 5887 5886 5886 5885 5883 5883 5884 5883 5882 5881 5881 5880 5879 5878
5874 5874 5874 5874 5867 5873 5876 5863 5874 5878 5881 5884 5886 5888 5889 5889 5889 5890 5890 5890 5890 5890 5889 5889 5888 5888 5888 5888 5886 5887 5885 5885 5884 5884 5884 5883 5882 5882 5881 5880 5879 5878 5877 5877 5877 5875 5874 5873 5872
5871 5872 5872 5870 5868 5864 5864 5862 5868 5874 5877 5878 5881 5883 5885 5886 5887 5886 5886 5886 5886 5886 5886 5886 5886 5885 5885 5883 5883 5882 5880 5881 5879 5879 5879 5879 5878 5877 5877 5877 5876 5875 5874 5873 5870 5869 5870 5869 5866
5871 5873 5873 5868 5865 5863 5862 5859 5865 5869 5871 5872 5874 5876 5878 5880 5882 5882 5882 5882 5882 5882 5882 5882 5881 5881 5880 5880 5878 5877 5874 5875 5875 5872 5875 5875 5872 5872 5874 5871 5870 5869 5867 5865 5864 5863 5862 5862 5858
5863 5870 5871 5859 5861 5860 5855 5856 5858 5860 5861 5863 5866 5868 5871 5873 5875 5875 5876 5877 5877 5877 5876 5876 5876 5875 5875 5874 5873 5870 5868 5867 5867 5865 5868 5867 5864 5866 5864 5863 5862 5861 5860 5859 5857 5854 5854 5854 5851
5859 5860 5864 5858 5857 5858 5852 5850 5854 5854 5852 5853 5855 5859 5862 5864 5867 5868 5868 5869 5869 5870 5870 5870 5869 5869 5868 5868 5866 5865 5863 5861 5860 5859 5859 5856 5856 5855 5855 5853 5854 5854 5852 5851 5848 5847 5845 5845 5846
5850 5852 5854 5858 5846 5850 5848 5846 5841 5845 5844 5845 5846 5849 5853 5855 5857 5858 5859 5860 5860 5861 5861 5861 5860 5860 5859 5859 5858 5857 5856 5854 5852 5850 5848 5847 5846 5843 5842 5843 5843 5842 5840 5839 5838 5836 5834 5832 5835
5842 5845 5848 5849 5841 5840 5838 5839 5837 5835 5838 5839 5841 5842 5843 5845 5846 5848 5849 5850 5850 5851 5852 5850 5849 5849 5850 5849 5849 5848 5846 5845 5843 5842 5840 5838 5835 5833 5831 5830 5829 5828 5827 5824 5824 5823 5822 5820 5820
5839 5840 5840 5842 5841 5830 5835 5831 5834 5826 5831 5833 5834 5835 5835 5836 5836 5837 5839 5840 5841 5841 5842 5842 5842 5841 5840 5839 5838 5837 5836 5834 5832 5831 5829 5827 5825 5824 5822 5820 5819 5816 5815 5813 5811 5809 5808 5806 5804
5829 5831 5833 5835 5832 5827 5831 5830 5828 5819 5821 5825 5828 5829 5828 5828 5828 5830 5831 5832 5833 5832 5832 5832 5832 5831 5829 5828 5827 5825 5823 5821 5820 5818 5816 5814 5812 5810 5808 5806 5803 5800 5798 5797 5795 5795 5794 5792 5792
5822 5823 5824 5827 5828 5829 5828 5824 5814 5812 5810 5816 5821 5821 5821 5820 5821 5821 5821 5821 5821 5821 5820 5820 5819 5818 5817 5815 5814 5812 5810 5808 5806 5804 5802 5800 5798 5796 5794 5792 5790 5788 5785 5783 5781 5779 5779 5778 5777
5816 5816 5821 5819 5820 5821 5821 5813 5814 5809 5807 5808 5811 5812 5813 5813 5812 5812 5812 5811 5811 5810 5809 5808 5806 5805 5804 5802 5799 5798 5795 5793 5791 5789 5787 5785 5783 5781 5779 5777 5774 5772 5770 5768 5767 5764 5762 5761 5760
5808 5812 5812 5812 5811 5811 5813 5805 5798 5800 5799 5798 5799 5800 5802 5802 5802 5802 5803 5801 5800 5799 5798 5796 5794 5792 5790 5787 5785 5783 5781 5778 5776 5774 5771 5769 5767 5765 5762 5760 5757 5754 5751 5749 5747 5745 5743 5742 5740
5801 5800 5802 5803 5801 5799 5795 5795 5790 5791 5795 5791 5790 5791 5793 5792 5792 5791 5790 5790 5790 5788 5786 5784 5781 5779 5777 5775 5772 5770 5767 5765 5762 5759 5757 5754 5751 5748 5745 5742 5739 5736 5733 5730 5727 5725 5723 5722 5720
5791 5794 5793 5791 5793 5793 5792 5779 5776 5782 5783 5782 5781 5781 5782 5781 5780 5780 5781 5780 5779 5776 5774 5772 5769 5767 5765 5762 5760 5757 5754 5751 5749 5746 5742 5738 5734 5731 5727 5724 5720 5717 5715 5712 5710 5707 5704 5701 5699